Погода в Стерлитамаке

Погода в Стерлитамаке : погода сейчас, прогноз погоды и архив. Всё, что Вы хотите узнать о погоде в Стерлитамаке!

Хотите узнать прогноз погоды в Стерлитамаке? Тогда Вам сюда: Погода в Стерлитамаке

Поиск расширенной информации на нашем сайте:

Другие новости

Новости СМИ2

Главная страница сайта

Новости сайта

03.07.2017

Напоминаем, что на нашем специализированном сайте Метеоцентр.Азия вы можете получить высокодетализированные автоматические прогнозы погоды по пунктам России, СНГ и мира в авиационном формате (включающие направление и скорость ветра, видимость, явления погоды, количество и форму облачности, нижнюю и верхнюю границу облачности).

Рекомендуем: см тут аренда офиса в бп курский арма завод Нижний Сусальный пер. на выгодных условиях

Погода в Стерлитамаке - сегодня

Время (UTC), дата Ветер
(°,м/с) 
Видим.   Явления Облачность Т
(°С)
Тd
(°С)
f(%) Тe
(°С)
Pmin
(гПа)
dP
(гПа)
Po
(мм)
O2
(г/м3)
Тmin Tmax R s Состояние
почвы
18 16.04.18 050 (СВ) 10 км    ясно 
+3.1 -4.5 57 +4  1017.8  1.2  751  300           
00 17.04.18 тихо ()   10 км    ясно 
-2.1 -5.2 79 -2  1018.6  0.4  751  305           
03 17.04.18 090 (В) 20000 м    10/0 верхняя 
[Ci sp]
-0.2 -3.5 78 1019  0.5  751  303  -3        замёрзшая 
06 17.04.18 020 (С) 20000 м    ясно 
+8.7 -6.8 33 +10  1018.7  0.2  751  294           
09 17.04.18 260 (З) 20000 м    4/0 верхняя 
[Ci fib]
+11.7 -8.9 23 +12  1017.5  -1  751  291           
12 17.04.18 350 (С) 20000 м    6/0 верхняя 
[Ci sp]
+12.4 -8.9 22 +13  1016.7  -0.7  750  290           
15 17.04.18 050 (СВ) 10 км    4/0 средняя 
[Ac trans]
+10.3 -8.9 25 +10  1016.9  750  292    +12.9       
18 17.04.18 тихо ()   10 км    ясно 
+3.5 -6.2 49 +4  1018.4  1.1  751  299           
21 17.04.18 тихо ()   10 км    ясно 
-0.3 -5.9 66 -0  1019  0.4  751  304           
00 18.04.18 тихо ()   10 км    ясно 
-0.4 -5.9 66 -0  1019.2  0.2  751  304           
03 18.04.18 090 (В) 10 км    8/0 средняя 
[Ac trans]
+2.2 -4.5 61 +3  1020.2  1.1  752  301  -1.9        замёрзшая 
06 18.04.18 120 (ЮВ) 20000 м    4/0 средняя, верхняя 
[Ac trans|Cc]
+8.9 -8.8 28 +9  1020.4  0.6  753  295           
09 18.04.18 350 (С) 20000 м    ясно 
+12.2 -10.4 20 +13  1019  -1.2  752  291           
12 18.04.18 330 (СЗ) 20000 м    3/0 верхняя 
[Ci fib]
+13.3 -8.7 21 +13  1018.1  -0.8  751  289           
15 18.04.18 050 (СВ) 10 км    8/0 верхняя 
[Ci fib]
+10.7 -7.8 26 +12  1017.7  -0.5  751  292    +13.7       
18 18.04.18 050 (СВ) 10 км    6/0 верхняя 
[Ci fib]
+4.8 -6.6 43 +6  1017.5  -0.5  750  298           
21 18.04.18 тихо ()   10 км    ясно 
+1.3 -5.4 61 +1  1016.1  -1.7  749  301           
00 19.04.18 тихо ()   10 км    9/0 средняя, верхняя 
[Ac trans|Ci fib]
-0.1 -5.6 66 -0  1014.7  -1.4  748  302           
03 19.04.18 тихо ()   10 км    9/8 1000 м средняя 
[Sc|Ac trans]
+3.2 -3.6 61 +3  1012.8  -1.7  747  298  -0.7        влажная 
06 19.04.18 190 (Ю) 10 км    10/0 средняя 
[Ac As]
+9.7 -3.5 39 +9  1011.1  -1.3  746  291           
09 19.04.18 190 (Ю) 10 км  слаб. дождь  10/6 300 м средняя 
[Frnb|As op]
+10.6 +2.4 57 +10  1010  -1  745  289           
12 19.04.18 160 (Ю) 4000 м  слаб. дождь  10/8 300 м средняя 
[Frnb|As op]
+8.8 +6.4 85 +9  1008.3  -1.7  744  289           
15 19.04.18 210 (ЮЗ) 10 км  слаб. дождь  10/10 300 м 
[Frnb|Ns]
+9.8 +6.9 82 +9  1007.2  -1.1  743  288    +11.5     
18 19.04.18 210 (ЮЗ) 10 км  слаб. дождь  10/10 300 м 
[Frnb|Ns]
+8.9 +6.4 84 +8  1007.5  0.3  743  289           
21 19.04.18 190 (Ю) 10 км  слаб. дождь  10/10 300 м 
[Ns]
+7.9 +4.9 81 +8  1006.2  -1.3  742  290           
Время (UTC), дата Ветер
(°,м/с) 
Видим.   Явления Облачность Т
(°С)
Тd
(°С)
f(%) Тe
(°С)
Pmin
(гПа)
dP
(гПа)
Po
(мм)
O2
(г/м3)
Тmin Tmax R s Состояние
почвы

Для получения пояснительной информации подведите курсор к названию столбца.

ПОГОДА в Стерлитамаке - архив

Всё, что Вы хотите узнать о погоде в Стерлитамаке - удобно и подробно!

Выберите нужную дату (начиная с 1 января 2015* года) и нажмите кнопку "Найти".
Будут отображены архивные сводки погоды по пункту Стерлитамак, начиная с указанной даты.


Отображать данные в формате CSV (для использования в таблицах Excel)


Внимание! Наш архив погоды предназначен исключительно для личного некоммерческого использования в познавательных целях. Если Вам необходимы официальные справки о состоянии погоды (для производственных, юридических, коммерческих и т.п. целей), обращайтесь в органы Росгидромета.

*Примечание: данная дата относится к архиву по метеостанциям СССР (Россия, СНГ, Балтия).
Архив по метеостанциям Зарубежной Европы и Азии (кроме Китая) хранится 10 дней, по другим регионам земного шара (Китай, Африка, Америка, Австралия, Океания) - 1 день.

Стерлитамак - район местоположения метеостанции


Название, широта, долгота, высота метеостанции:
Стерлитамак 53.6°ш. 56°д. 137 м над ур. моря [Российская Федерация]

Дополнительная информация

В oтличие oт бoльшинства пoгoдных сайтoв мы публикуем пoдрoбную метеoинфoрмацию в детальнoм прoфессиoнальнoм фoрмате.

Характеристики температуры и влажнoсти вoздуха измеряются на высoте 2 м в тени вдали oт зданий и деревьев.
Скoрoсть ветра измеряется на высoте 10 м (на урoвне рoста челoвека скoрoсть ветра ниже в 1.5-2 раза). Если метеoстанция нахoдится в гoрoде или в лесу, тo скoрoсть ветра занижена на 2-4 м/с пo сравнению с oткрытым местoм. Скoрoсть ветра над акватoриями крупных рек и oзёр, а также на вершинах хoлмoв на 2-5 м/с выше, чем в oбычных услoвиях.
Атмoсфернoе давление в разных тoчках местнoсти мoжет значительнo oтличаться oт давления на метеoстанции, в зависимoсти oт услoвий рельефа (при пoдъёме на 10 м давление пoнижается примернo на 1 мм рт.ст.).